AC0ID-13 Weather Reports


Display with metric or nautical units.
time (UTC)temp
F
wind
direction
speed
MPH
gust
MPH
rain 1hr
in
rain 24hr
in
rain mn
in
humidity
%
barometer
mb
20260831094513 72 202 0.0 2.0 0.00 0.00 0.00 90 1009.3
20260831094013 72 240 0.0 2.0 0.00 0.00 0.00 90 1009.3
20260831093516 72 252 0.0 2.0 0.00 0.00 0.00 90 1009.3
20260831093013 72 165 0.0 2.0 0.00 0.00 0.00 90 1009.3
20260831092509 72 187 0.0 1.0 0.00 0.00 0.00 90 1009.3
20260831092014 72 187 0.0 3.0 0.00 0.00 0.00 90 1009.2
20260831091528 72 144 0.0 3.0 0.00 0.00 0.00 90 1009.1
20260831091012 72 130 0.0 2.0 0.00 0.00 0.00 90 1009.2
20260831090510 72 252 0.0 2.0 0.00 0.00 0.00 90 1009.2
20260831090027 72 121 0.0 2.0 0.00 0.00 0.00 90 1009.2
20260831085516 72 87 0.0 2.0 0.00 0.00 0.00 90 1009.3
20260831085006 72 86 0.0 2.0 0.00 0.00 0.00 89 1009.2
20260831084515 72 86 0.0 2.0 0.00 0.00 0.00 89 1009.3
20260831084008 72 119 0.0 2.0 0.00 0.00 0.00 89 1009.2
20260831083507 72 117 0.0 2.0 0.00 0.00 0.00 89 1009.1
20260831083034 72 123 0.0 3.0 0.00 0.00 0.00 89 1009.0
20260831082513 72 123 0.0 3.0 0.00 0.00 0.00 89 1009.1
20260831082011 72 200 0.0 2.0 0.00 0.00 0.00 89 1009.0
20260831081515 72 259 0.0 1.0 0.00 0.00 0.00 89 1009.0
20260831081013 72 107 0.0 2.0 0.00 0.00 0.00 89 1009.0
20260831080514 72 142 0.0 3.0 0.00 0.00 0.00 89 1009.0
20260831080024 72 124 0.0 4.0 0.00 0.00 0.00 89 1009.0
20260831075512 72 140 0.0 4.0 0.00 0.00 0.00 89 1009.0
20260831075014 72 117 1.0 3.0 0.00 0.00 0.00 88 1009.2
20260831074530 73 125 0.0 3.0 0.00 0.00 0.00 88 1009.2
20260831074008 72 125 0.0 3.0 0.00 0.00 0.00 88 1009.3
20260831073507 73 101 0.0 2.0 0.00 0.00 0.00 88 1009.2
20260831073018 73 147 0.0 3.0 0.00 0.00 0.00 88 1009.3
20260831072511 73 121 0.0 3.0 0.00 0.00 0.00 88 1009.3
20260831072010 73 144 1.0 3.0 0.00 0.00 0.00 88 1009.3
20260831071521 73 152 1.0 3.0 0.00 0.00 0.00 88 1009.3
20260831071014 73 104 0.0 4.0 0.00 0.00 0.00 88 1009.4
20260831070508 73 120 0.0 4.0 0.00 0.00 0.00 88 1009.4
20260831070024 73 142 0.0 3.0 0.00 0.00 0.00 88 1009.4
20260831065514 73 90 0.0 3.0 0.00 0.00 0.00 88 1009.4
20260831065015 73 100 1.0 6.0 0.00 0.00 0.00 87 1009.5
20260831064519 73 121 0.0 6.0 0.00 0.00 0.00 87 1009.6
20260831064013 73 249 0.0 4.0 0.00 0.00 0.00 87 1009.5
20260831063514 73 106 1.0 4.0 0.00 0.00 0.00 87 1009.6
20260831063019 73 117 0.0 3.0 0.00 0.00 0.00 87 1009.7
20260831062513 73 96 0.0 3.0 0.00 0.00 0.00 87 1009.8
20260831062016 73 132 0.0 3.0 0.00 0.00 0.00 87 1009.8
20260831061518 73 156 0.0 4.0 0.00 0.00 0.00 86 1009.9
20260831061012 73 238 1.0 4.0 0.00 0.00 0.00 86 1010.0
20260831060512 73 126 1.0 4.0 0.00 0.00 0.00 86 1010.0
20260831060024 73 138 0.0 3.0 0.00 0.00 0.00 86 1009.9
20260831055511 73 123 0.0 6.0 0.00 0.00 0.00 86 1010.0
20260831055011 73 142 1.0 6.0 0.00 0.00 0.00 86 1010.0
20260831054531 73 142 0.0 6.0 0.00 0.00 0.00 85 1010.1
20260831054019 73 144 0.0 4.0 0.00 0.00 0.00 85 1010.1
20260831053511 73 142 1.0 4.0 0.00 0.00 0.00 85 1010.2
20260831053029 73 116 0.0 3.0 0.00 0.00 0.00 85 1010.2
20260831052521 73 115 1.0 4.0 0.00 0.00 0.00 85 1010.2
20260831052017 73 123 1.0 4.0 0.00 0.00 0.00 84 1010.2
20260831051526 73 150 0.0 4.0 0.00 0.00 0.00 84 1010.3
20260831051016 73 98 1.0 6.0 0.00 0.00 0.00 84 1010.3
20260831050517 73 114 2.0 6.0 0.00 0.00 0.00 84 1010.3
20260831050017 73 146 0.0 6.0 0.00 0.00 0.00 84 1010.3
20260831045512 73 134 0.0 6.0 0.00 0.00 0.00 84 1010.3
20260831045011 73 150 0.0 3.0 0.00 0.00 0.00 83 1010.4
20260831044524 73 117 0.0 7.0 0.00 0.00 0.00 83 1010.3
20260831044013 73 132 0.0 7.0 0.00 0.00 0.00 83 1010.3
20260831043515 73 154 1.0 7.0 0.00 0.00 0.00 83 1010.3
20260831043026 73 130 0.0 6.0 0.00 0.00 0.00 83 1010.3
20260831042513 73 125 1.0 6.0 0.00 0.00 0.00 82 1010.4
20260831042013 73 150 1.0 5.0 0.00 0.00 0.00 82 1010.3
20260831041544 73 144 2.0 4.0 0.00 0.00 0.00 82 1010.3
20260831041004 73 128 1.0 3.0 0.00 0.00 0.00 82 1010.3
20260831040504 74 184 1.0 3.0 0.00 0.00 0.00 82 1010.3
20260831040004 74 146 1.0 8.0 0.00 0.00 0.00 82 1010.3
20260831035506 74 86 3.0 8.0 0.00 0.00 0.00 82 1010.2
20260831035004 74 155 1.0 6.0 0.00 0.00 0.00 81 1010.3
20260831034503 74 62 1.0 7.0 0.00 0.00 0.00 81 1010.3
20260831034003 74 146 1.0 7.0 0.00 0.00 0.00 81 1010.3
20260831033504 74 126 0.0 5.0 0.00 0.00 0.00 81 1010.4
20260831033003 74 59 1.0 9.0 0.00 0.00 0.00 81 1010.6
20260831032503 74 126 0.0 9.0 0.00 0.00 0.00 81 1010.7
20260831032007 74 134 2.0 7.0 0.00 0.00 0.00 81 1010.8
20260831031516 74 142 0.0 7.0 0.00 0.00 0.00 80 1010.8
20260831031004 74 146 2.0 7.0 0.00 0.00 0.00 80 1010.8
20260831030507 74 115 1.0 6.0 0.00 0.00 0.00 80 1010.8
20260831030004 74 176 1.0 9.0 0.00 0.00 0.00 80 1010.9
20260831025503 74 144 3.0 9.0 0.00 0.00 0.00 80 1010.9
20260831025007 74 148 0.0 10.0 0.00 0.00 0.00 80 1010.9
20260831024510 74 214 1.0 10.0 0.00 0.00 0.00 79 1010.9
20260831024004 74 150 1.0 6.0 0.00 0.00 0.00 79 1010.9
20260831023506 74 108 1.0 6.0 0.00 0.00 0.00 79 1010.9
20260831023013 74 153 1.0 8.0 0.00 0.00 0.00 79 1011.0
20260831022504 74 147 1.0 8.0 0.00 0.00 0.00 79 1011.0
20260831022004 75 170 1.0 8.0 0.00 0.00 0.00 79 1011.0
20260831021506 75 219 3.0 8.0 0.00 0.00 0.00 78 1011.0
20260831021005 75 177 1.0 8.0 0.00 0.00 0.00 78 1011.0
20260831020503 75 119 0.0 8.0 0.00 0.00 0.00 78 1011.0
20260831020010 75 176 1.0 8.0 0.00 0.00 0.00 78 1011.0
20260831015503 75 134 1.0 7.0 0.00 0.00 0.00 77 1010.9
20260831015006 75 160 1.0 7.0 0.00 0.00 0.00 77 1011.0
20260831014509 75 117 2.0 7.0 0.00 0.00 0.00 77 1010.9
20260831014007 75 217 2.0 11.0 0.00 0.00 0.00 76 1010.8
20260831013507 75 109 1.0 11.0 0.00 0.00 0.00 76 1010.9
20260831013017 75 125 2.0 7.0 0.00 0.00 0.00 76 1010.8
20260831012506 76 109 3.0 7.0 0.00 0.00 0.00 75 1010.7
20260831012004 76 258 2.0 12.0 0.00 0.00 0.00 75 1010.6
20260831011514 76 198 4.0 12.0 0.00 0.00 0.00 75 1010.5
20260831011005 76 111 2.0 12.0 0.00 0.00 0.00 74 1010.5
20260831010506 76 137 2.0 9.0 0.00 0.00 0.00 74 1010.4
20260831010016 76 111 1.0 14.0 0.00 0.00 0.00 74 1010.4
20260831005509 77 132 2.0 14.0 0.00 0.00 0.00 73 1010.3
20260831005006 77 107 4.0 13.0 0.00 0.00 0.00 74 1010.2
20260831004508 77 119 3.0 8.0 0.00 0.00 0.00 74 1010.2
20260831004008 77 222 1.0 8.0 0.00 0.00 0.00 74 1010.4
20260831003508 77 82 1.0 8.0 0.00 0.00 0.00 73 1010.4
20260831003011 77 261 2.0 9.0 0.00 0.00 0.00 73 1010.4
20260831002508 78 147 1.0 9.0 0.00 0.00 0.00 72 1010.6
20260831002010 78 232 1.0 6.0 0.00 0.00 0.00 72 1010.7
20260831001511 78 128 1.0 8.0 0.00 0.00 0.00 72 1010.6
20260831001009 78 84 2.0 8.0 0.00 0.00 0.00 72 1010.6
20260831000509 78 116 2.0 9.0 0.00 0.00 0.00 72 1010.7
20260831000021 78 105 3.0 9.0 0.00 0.00 0.00 72 1010.7
20260830235506 78 148 2.0 9.0 0.00 0.00 0.00 71 1010.6
20260830235007 79 154 1.0 9.0 0.00 0.00 0.00 71 1010.5
20260830234515 79 223 3.0 9.0 0.00 0.00 0.00 70 1010.4
20260830234011 79 118 1.0 8.0 0.00 0.00 0.00 69 1010.5
20260830233507 79 304 3.0 8.0 0.00 0.00 0.00 69 1010.6
20260830233018 79 228 1.0 6.0 0.00 0.00 0.00 68 1010.6
20260830232508 80 145 1.0 9.0 0.00 0.00 0.00 67 1010.7
20260830232010 80 254 2.0 9.0 0.00 0.00 0.00 66 1010.7
20260830231513 81 96 1.0 8.0 0.00 0.00 0.00 65 1010.6
20260830231008 81 211 2.0 11.0 0.00 0.00 0.00 65 1010.4
20260830230511 81 144 3.0 11.0 0.00 0.00 0.00 65 1010.4
20260830230015 81 98 1.0 7.0 0.00 0.00 0.00 64 1010.3
20260830225508 82 98 0.0 8.0 0.00 0.00 0.00 64 1010.2
20260830225011 82 204 2.0 8.0 0.00 0.00 0.00 63 1010.1
20260830224516 83 119 1.0 10.0 0.00 0.00 0.00 63 1010.0
20260830224010 83 104 1.0 10.0 0.00 0.00 0.00 62 1010.1
20260830223510 83 103 2.0 10.0 0.00 0.00 0.00 62 1010.0
20260830223015 84 277 1.0 10.0 0.00 0.00 0.00 63 1010.0
20260830222509 84 223 2.0 10.0 0.00 0.00 0.00 62 1009.9
20260830222012 84 265 2.0 8.0 0.00 0.00 0.00 64 1009.9
20260830221517 84 296 1.0 8.0 0.00 0.00 0.00 65 1009.9
20260830221008 84 160 1.0 5.0 0.00 0.00 0.00 65 1009.9
20260830220510 84 107 1.0 6.0 0.00 0.00 0.00 64 1009.8
20260830220018 84 109 2.0 6.0 0.00 0.00 0.00 64 1009.8
20260830215512 83 113 2.0 8.0 0.00 0.00 0.00 65 1009.9
20260830215015 83 311 1.0 8.0 0.00 0.00 0.00 64 1010.0
20260830214515 83 204 2.0 12.0 0.00 0.00 0.00 62 1010.0
20260830214012 84 232 2.0 12.0 0.00 0.00 0.00 61 1009.9
20260830213512 85 237 1.0 8.0 0.00 0.00 0.00 60 1009.9
20260830213019 84 104 1.0 8.0 0.00 0.00 0.00 62 1009.7
20260830212510 83 160 2.0 9.0 0.00 0.00 0.00 63 1009.7
20260830212010 84 326 3.0 9.0 0.00 0.00 0.00 62 1009.6
20260830211520 84 211 2.0 10.0 0.00 0.00 0.00 62 1009.7
20260830211012 85 177 1.0 15.0 0.00 0.00 0.00 62 1009.6
20260830210513 85 165 2.0 15.0 0.00 0.00 0.00 62 1009.7
20260830210029 86 132 2.0 9.0 0.00 0.00 0.00 60 1009.7
20260830205515 86 160 1.0 9.0 0.00 0.00 0.00 62 1009.8
20260830205012 86 126 1.0 9.0 0.00 0.00 0.00 60 1009.9
20260830204504 86 129 2.0 6.0 0.00 0.00 0.00 59 1009.8
20260830204003 87 127 1.0 6.0 0.00 0.00 0.00 60 1009.7
20260830203505 87 96 2.0 8.0 0.00 0.00 0.00 60 1009.6
20260830203003 87 112 2.0 9.0 0.00 0.00 0.00 61 1009.4
20260830202504 86 153 3.0 9.0 0.00 0.00 0.00 60 1009.6
20260830202006 87 142 1.0 9.0 0.00 0.00 0.00 60 1009.7
20260830201510 87 82 3.0 8.0 0.00 0.00 0.00 63 1009.9
20260830201002 87 189 2.0 9.0 0.00 0.00 0.00 61 1010.0
20260830200506 87 133 2.0 9.0 0.00 0.00 0.00 62 1010.1
20260830200014 86 71 1.0 12.0 0.00 0.00 0.00 64 1010.2
20260830195511 85 148 1.0 12.0 0.00 0.00 0.00 63 1010.2
20260830195005 86 88 1.0 9.0 0.00 0.00 0.00 63 1010.2
20260830194518 85 227 3.0 9.0 0.00 0.00 0.00 64 1010.1
20260830194013 85 215 1.0 9.0 0.00 0.00 0.00 65 1010.2
20260830193503 85 104 3.0 9.0 0.00 0.00 0.00 67 1010.2
20260830193004 84 241 1.0 10.0 0.00 0.00 0.00 69 1010.2
20260830192502 85 118 3.0 10.0 0.00 0.00 0.00 67 1010.1
20260830192005 85 185 1.0 8.0 0.00 0.00 0.00 68 1010.1
20260830191507 84 161 1.0 8.0 0.00 0.00 0.00 68 1010.1
20260830191005 84 243 1.0 10.0 0.00 0.00 0.00 67 1010.1
20260830190507 84 121 2.0 10.0 0.00 0.00 0.00 65 1010.1
20260830190005 84 105 3.0 9.0 0.00 0.00 0.00 65 1009.9
20260830185509 85 98 1.0 11.0 0.00 0.00 0.00 64 1010.0
20260830185011 86 144 2.0 11.0 0.00 0.00 0.00 61 1009.9
20260830184519 87 157 2.0 7.0 0.00 0.00 0.00 60 1009.8
20260830184004 86 149 2.0 9.0 0.00 0.00 0.00 64 1009.7
20260830183510 85 159 1.0 9.0 0.00 0.00 0.00 64 1009.7
20260830183020 86 148 2.0 7.0 0.00 0.00 0.00 62 1009.8
20260830182516 86 178 1.0 4.0 0.00 0.00 0.00 61 1009.8
20260830182007 86 198 1.0 4.0 0.00 0.00 0.00 62 1009.8
20260830181516 86 123 1.0 6.0 0.00 0.00 0.00 61 1009.8
20260830181005 86 119 0.0 6.0 0.00 0.00 0.00 63 1009.8
20260830180507 86 90 1.0 3.0 0.00 0.00 0.00 63 1009.8
20260830180007 86 213 0.0 4.0 0.00 0.00 0.00 65 1009.8
20260830175506 85 107 1.0 4.0 0.00 0.00 0.00 65 1009.9
20260830175008 84 91 1.0 3.0 0.00 0.00 0.00 62 1010.1
20260830174510 84 352 0.0 3.0 0.00 0.00 0.00 67 1010.2
20260830174008 84 138 0.0 3.0 0.00 0.00 0.00 68 1010.2
20260830173509 82 167 0.0 2.0 0.00 0.00 0.00 68 1010.3
20260830173007 81 261 0.0 3.0 0.00 0.00 0.00 72 1010.4
20260830172511 80 274 0.0 4.0 0.00 0.00 0.00 71 1010.4
20260830172011 80 211 0.0 4.0 0.00 0.00 0.00 72 1010.7
20260830171527 80 112 1.0 7.0 0.00 0.00 0.00 72 1010.9
20260830171007 79 211 1.0 8.0 0.00 0.00 0.00 72 1011.0
20260830170510 79 257 2.0 8.0 0.00 0.00 0.00 72 1011.2
20260830170025 80 221 3.0 9.0 0.00 0.00 0.00 72 1011.4
20260830165504 80 134 1.0 9.0 0.00 0.00 0.00 73 1011.3
20260830165007 80 133 2.0 5.0 0.00 0.00 0.00 72 1011.3
20260830164519 80 95 1.0 8.0 0.00 0.00 0.00 73 1011.2
20260830164009 80 328 1.0 8.0 0.00 0.00 0.00 71 1011.3
20260830163507 81 243 0.0 4.0 0.00 0.00 0.00 72 1011.3
20260830163015 81 161 1.0 5.0 0.00 0.00 0.00 71 1011.3
20260830162511 82 206 1.0 5.0 0.00 0.00 0.00 69 1011.1
20260830162012 82 257 0.0 4.0 0.00 0.00 0.00 70 1010.8
20260830161510 83 228 1.0 4.0 0.00 0.00 0.00 69 1010.7
20260830161015 83 209 1.0 5.0 0.00 0.00 0.00 68 1010.4
20260830160516 83 236 0.0 6.0 0.00 0.00 0.00 68 1010.3
20260830160012 82 257 0.0 6.0 0.00 0.00 0.00 69 1010.3
20260830155510 82 269 0.0 4.0 0.00 0.00 0.00 71 1010.2
20260830155015 82 260 0.0 4.0 0.00 0.00 0.00 69 1010.1
20260830154528 82 219 0.0 2.0 0.00 0.00 0.00 71 1010.0
20260830154008 81 142 0.0 3.0 0.00 0.00 0.00 71 1010.0
20260830153507 81 115 1.0 3.0 0.00 0.00 0.00 72 1010.0
20260830153013 80 273 0.0 3.0 0.00 0.00 0.00 72 1010.0
20260830152511 79 107 0.0 2.0 0.00 0.00 0.00 72 1009.9
20260830152013 79 107 0.0 2.0 0.00 0.00 0.00 73 1010.0
20260830151520 79 269 0.0 2.0 0.00 0.00 0.00 73 1009.9
20260830151012 80 132 0.0 2.0 0.00 0.00 0.00 73 1009.8
20260830150508 79 135 0.0 4.0 0.00 0.00 0.00 74 1009.7
20260830150023 78 144 1.0 4.0 0.00 0.00 0.00 74 1009.8
20260830145519 78 98 0.0 3.0 0.00 0.00 0.00 74 1009.9
20260830145013 78 137 0.0 3.0 0.00 0.00 0.00 76 1009.9
20260830144503 77 254 1.0 3.0 0.00 0.00 0.00 76 1009.8
20260830144003 77 103 0.0 3.0 0.00 0.00 0.00 77 1009.8
20260830143504 76 182 0.0 2.0 0.00 0.00 0.00 79 1009.8
20260830143010 75 244 0.0 2.0 0.00 0.00 0.00 80 1009.7
20260830142508 75 221 0.0 4.0 0.00 0.00 0.00 81 1009.7
20260830142004 74 221 0.0 4.0 0.00 0.00 0.00 81 1009.8
20260830141520 74 145 0.0 4.0 0.00 0.00 0.00 82 1009.7
20260830141012 74 128 0.0 3.0 0.00 0.00 0.00 82 1009.8
20260830140510 73 128 0.0 3.0 0.00 0.00 0.00 82 1009.9
20260830140007 73 161 0.0 4.0 0.00 0.00 0.00 83 1009.9
20260830135508 73 165 1.0 4.0 0.00 0.00 0.00 83 1010.0
20260830135012 73 199 0.0 7.0 0.00 0.00 0.00 84 1010.0
20260830134536 72 115 2.0 7.0 0.00 0.00 0.00 85 1009.9
20260830134007 72 87 0.0 6.0 0.00 0.00 0.00 86 1009.9
20260830133504 71 237 0.0 5.0 0.00 0.00 0.00 87 1009.9
20260830133008 70 126 0.0 4.0 0.00 0.00 0.00 87 1009.8
20260830132508 70 100 1.0 4.0 0.00 0.00 0.00 88 1009.8
20260830132006 70 103 0.0 4.0 0.00 0.00 0.00 88 1009.9
20260830131511 70 129 1.0 4.0 0.00 0.00 0.00 88 1009.9
20260830131014 70 245 0.0 4.0 0.00 0.00 0.00 89 1009.9
20260830130507 69 108 0.0 6.0 0.00 0.00 0.00 90 1010.0
20260830130018 69 122 1.0 6.0 0.00 0.00 0.00 90 1009.9
20260830125514 69 140 0.0 3.0 0.00 0.00 0.00 91 1010.0
20260830125003 69 133 1.0 4.0 0.00 0.00 0.00 90 1009.9
20260830124515 68 149 0.0 5.0 0.00 0.00 0.00 90 1009.9
20260830124011 68 138 1.0 5.0 0.00 0.01 0.00 90 1010.0
20260830123515 68 142 0.0 4.0 0.00 0.01 0.00 91 1010.1
20260830123010 68 132 0.0 4.0 0.00 0.02 0.00 91 1010.0
20260830122510 68 133 1.0 5.0 0.00 0.03 0.00 91 1009.8
20260830122016 68 130 1.0 5.0 0.00 0.03 0.00 91 1009.7
20260830121508 68 152 1.0 3.0 0.00 0.04 0.00 91 1009.6
20260830121005 68 107 1.0 3.0 0.00 0.04 0.00 91 1009.6
20260830120509 68 100 0.0 3.0 0.00 0.05 0.00 91 1009.6
20260830120015 68 115 0.0 3.0 0.00 0.05 0.00 91 1009.5
20260830115507 68 145 1.0 3.0 0.00 0.06 0.00 91 1009.6
20260830115013 68 141 1.0 4.0 0.00 0.06 0.00 90 1009.6
20260830114523 68 145 1.0 4.0 0.00 0.07 0.00 90 1009.6
20260830114015 68 128 1.0 4.0 0.00 0.08 0.00 90 1009.5
20260830113509 68 130 1.0 4.0 0.00 0.08 0.00 90 1009.6
20260830113026 68 132 0.0 2.0 0.00 0.09 0.00 90 1009.7
20260830112518 68 125 0.0 3.0 0.00 0.10 0.00 90 1009.7
20260830112007 68 112 1.0 3.0 0.00 0.11 0.00 90 1009.7
20260830111522 68 140 1.0 3.0 0.00 0.12 0.00 90 1009.6
20260830111014 68 90 0.0 7.0 0.00 0.14 0.00 89 1009.6
20260830110516 69 123 2.0 7.0 0.00 0.16 0.00 90 1009.6
20260830110016 69 152 1.0 4.0 0.00 0.17 0.00 90 1009.6
20260830105509 69 133 1.0 5.0 0.00 0.18 0.00 89 1009.6
20260830105010 69 148 1.0 5.0 0.00 0.18 0.00 89 1009.6
20260830104521 69 127 0.0 5.0 0.00 0.19 0.00 89 1010.0
20260830104012 69 117 1.0 5.0 0.00 0.20 0.00 89 1009.9
20260830103514 69 138 0.0 4.0 0.00 0.21 0.00 89 1009.9
20260830103024 69 104 0.0 4.0 0.00 0.22 0.00 89 1009.8
20260830102511 69 116 1.0 4.0 0.00 0.23 0.00 89 1009.8
20260830102013 69 87 1.0 6.0 0.00 0.24 0.00 89 1009.7
20260830101525 69 96 1.0 6.0 0.00 0.25 0.00 89 1009.8
20260830101018 69 93 1.0 4.0 0.00 0.27 0.00 89 1009.9
20260830100512 69 92 1.0 7.0 0.00 0.28 0.00 89 1009.8
20260830100028 69 139 1.0 7.0 0.00 0.29 0.00 89 1009.8
20260830095517 69 146 1.0 4.0 0.00 0.30 0.00 89 1009.8
20260830095010 69 144 0.0 7.0 0.00 0.31 0.00 89 1009.8